This demonstration page uses our WeatherBlox Daily Observations layout. Learn more.

Left ArrowRight Arrow

40.92945, -100.16068

Hourly Observations for August 15, 2020

Temp ( °F °C ) Dew Point ( °F °C ) Humidity (%) Winds ( mph kmh ) Pressure ( in mb ) Visibility ( mi km ) Precip ( " mm )
12:15 am 00:15 Clear 63 17.2 60 15.5 90 90 N 7 11 30.05 1017 10 16.0934 0 0
12:35 am 00:35 Clear 62 16.9 59 15.1 89 89 Calm 30.05 1018 10 16.0934 0 0
12:55 am 00:55 Clear 62 16.7 59 14.9 89 89 Calm 30.07 1018 10 16.0934 0 0
1:15 am 01:15 Clear 62 16.5 59 14.8 90 90 SW 3 6 30.08 1019 10 16.0934 0 0
1:35 am 01:35 Clear 61 16 59 14.9 93 93 WNW 5 7 30.08 1019 10 16.0934 0 0
1:55 am 01:55 Clear 60 15.5 58 14.3 93 93 Calm 30.09 1019 10 16.0934 0 0
2:15 am 02:15 Clear 60 15.5 58 14.4 93 93 Calm 30.1 1019 10 16.0934 0 0
2:35 am 02:35 Clear 59 15.1 58 14.3 95 95 NW 3 6 30.09 1019 10 16.0934 0 0
2:55 am 02:55 Clear 59 14.8 57 13.7 93 93 NW 7 11 30.1 1019 10 16.0934 0 0
3:15 am 03:15 Clear 59 15.2 58 14.2 94 94 Calm 30.09 1019 10 16.0934 0 0
3:35 am 03:35 Clear 59 15 57 14 94 94 N 3 6 30.1 1019 10 16.0934 0 0
3:55 am 03:55 Clear 58 14.7 57 13.9 95 95 NW 6 9 30.09 1019 10 16.0934 0 0
4:15 am 04:15 Clear 58 14.5 57 13.7 95 95 Calm 30.08 1019 10 16.0934 0 0
4:35 am 04:35 Clear 58 14.5 57 13.7 95 95 Calm 30.08 1019 10 16.0934 0 0
4:55 am 04:55 Clear 57 13.9 55 13 94 94 W 7 11 30.08 1018 10 16.0934 0 0
5:15 am 05:15 Clear 57 14.1 56 13.3 95 95 WNW 3 6 30.07 1018 10 16.0934 0 0
5:35 am 05:35 Clear 57 13.7 55 12.7 94 94 S 6 9 30.09 1019 10 16.0934 0 0
5:55 am 05:55 Clear 56 13.6 55 12.5 93 93 Calm 30.09 1019 10 16.0934 0 0
6:15 am 06:15 Clear 56 13.4 55 12.7 96 96 Calm 30.1 1019 10 16.0934 0 0
6:35 am 06:35 Clear 56 13.2 54 12.4 95 95 Calm 30.1 1019 10 16.0934 0 0
6:55 am 06:55 Sunny 55 12.7 54 12.1 96 96 Calm 30.11 1020 10 16.0934 0 0
7:15 am 07:15 Sunny 55 12.5 54 12 97 97 Calm 30.11 1020 10 16.0934 0 0
7:35 am 07:35 Sunny 56 13.6 55 12.7 94 94 Calm 30.12 1020 10 16.0934 0 0
7:55 am 07:55 Sunny 59 15 57 13.8 93 93 Calm 30.11 1019 10 16.0934 0 0
8:15 am 08:15 Sunny 62 16.5 57 14.1 86 86 Calm 30.11 1020 10 16.0934 0 0
8:35 am 08:35 Sunny 65 18.4 59 14.8 80 80 ESE 5 7 30.1 1019 10 16.0934 0 0
8:55 am 08:55 Sunny 67 19.5 58 14.6 73 73 ESE 7 11 30.09 1019 10 16.0934 0 0
9:15 am 09:15 Sunny 68 19.8 58 14.6 72 72 ESE 8 13 30.09 1019 10 16.0934 0 0
9:35 am 09:35 Sunny 69 20.3 58 14.5 69 69 SE 10 17 30.08 1019 10 16.0934 0 0
9:55 am 09:55 Sunny 70 21.1 58 14.6 67 67 SSE 9 15 30.08 1019 10 16.0934 0 0
10:15 am 10:15 Sunny 71 21.7 58 14.6 64 64 SSE 10 17 30.08 1019 10 16.0934 0 0
10:35 am 10:35 Sunny 73 22.6 57 13.7 57 57 SSE 8 13 30.07 1018 10 16.0934 0 0
10:55 am 10:55 Sunny 74 23.5 56 13.4 53 53 SE 12 19 30.06 1018 10 16.0934 0 0
11:15 am 11:15 Sunny 76 24.6 52 11.1 43 43 SE 12 19 30.05 1018 10 16.0934 0 0
11:35 am 11:35 Sunny 77 25.2 52 10.9 41 41 SE 9 15 30.05 1018 10 16.0934 0 0
11:55 am 11:55 Sunny 78 25.8 48 9 35 35 SE 12 19 30.05 1018 7 11.26538 0 0
12:15 pm 12:15 Sunny 80 26.5 47 8.2 31 31 SE 13 20 30.04 1017 7 11.26538 0 0
12:35 pm 12:35 Sunny 80 26.7 46 7.7 30 30 SE 17 28 30.04 1017 10 16.0934 0 0
12:55 pm 12:55 Sunny 80 26.9 46 8 30 30 SSE 12 19 30.02 1017 10 16.0934 0 0
1:15 pm 13:15 Sunny 82 27.9 48 8.8 30 30 S 14 22 30.02 1016 10 16.0934 0 0
1:35 pm 13:35 Sunny 82 27.5 47 8.3 30 30 S 15 24 30.01 1016 10 16.0934 0 0
1:55 pm 13:55 Sunny 82 27.8 46 8 29 29 SSE 15 24 30.01 1016 10 16.0934 0 0
2:15 pm 14:15 Sunny 83 28.2 49 9.2 30 30 SE 10 17 29.99 1016 10 16.0934 0 0
2:35 pm 14:35 Sunny 83 28.5 48 9.1 30 30 SSE 12 19 29.99 1016 10 16.0934 0 0
2:55 pm 14:55 Sunny 83 28.5 47 8.1 28 28 SSE 13 20 29.98 1015 10 16.0934 0 0
3:15 pm 15:15 Partly Cloudy 85 29.2 44 6.8 24 24 SE 13 20 29.97 1015 10 16.0934 0 0
3:35 pm 15:35 Mostly Cloudy 84 28.9 48 8.7 28 28 SE 14 22 29.97 1015 10 16.0934 0 0
3:55 pm 15:55 Partly Cloudy 85 29.3 50 10 30 30 SE 10 17 29.96 1015 10 16.0934 0 0
4:15 pm 16:15 Sunny 84 29.1 51 10.4 31 31 SSE 13 20 29.96 1014 10 16.0934 0 0
4:35 pm 16:35 Sunny 85 29.4 51 10.5 31 31 SSE 13 20 29.94 1014 10 16.0934 0 0
4:55 pm 16:55 Sunny 85 29.5 51 10.5 31 31 SSE 12 19 29.94 1014 10 16.0934 0 0
5:15 pm 17:15 Sunny 84 29.1 52 10.9 32 32 SSE 9 15 29.95 1014 10 16.0934 0 0
5:35 pm 17:35 Sunny 85 29.4 53 11.5 33 33 SSE 14 22 29.93 1014 10 16.0934 0 0
5:55 pm 17:55 Partly Cloudy 85 29.5 51 10.8 31 31 SSE 12 19 29.94 1014 10 16.0934 0 0
6:15 pm 18:15 Cloudy 84 28.8 52 11.1 33 33 SSE 10 17 29.95 1014 10 16.0934 0 0
6:35 pm 18:35 Cloudy 83 28.1 53 11.5 36 36 SE 7 11 29.95 1014 10 16.0934 0 0
6:55 pm 18:55 Cloudy 82 27.6 54 12.3 39 39 SE 9 15 29.96 1014 10 16.0934 0 0
7:15 pm 19:15 Cloudy 81 27.1 54 12.3 40 40 SE 12 19 29.95 1014 10 16.0934 0 0
7:35 pm 19:35 Partly Cloudy 80 26.5 55 12.7 42 42 SE 10 17 29.95 1014 10 16.0934 0 0
7:55 pm 19:55 Sunny 79 26 55 12.9 44 44 SE 9 15 29.94 1014 10 16.0934 0 0
8:15 pm 20:15 Partly Cloudy 78 25.4 55 12.9 46 46 ESE 7 11 29.97 1015 10 16.0934 0 0
8:35 pm 20:35 Partly Cloudy 76 24.7 56 13.1 49 49 SE 8 13 29.98 1015 10 16.0934 0 0
8:55 pm 20:55 Clear 76 24.3 56 13.2 50 50 ESE 7 11 30 1016 10 16.0934 0 0
9:15 pm 21:15 Clear 75 23.9 56 13.3 52 52 SE 6 9 30.01 1016 10 16.0934 0 0
9:35 pm 21:35 Clear 74 23.5 56 13.5 54 54 SE 7 11 30 1016 10 16.0934 0 0
9:55 pm 21:55 Clear 73 22.6 58 14.2 59 59 SSE 7 11 30 1016 10 16.0934 0 0
10:15 pm 22:15 Clear 71 21.7 59 14.8 65 65 SSE 7 11 30.01 1016 10 16.0934 0 0
10:35 pm 22:35 Clear 72 22.2 58 14.6 62 62 SE 7 11 30.01 1016 10 16.0934 0 0
10:55 pm 22:55 Clear 72 22 58 14.5 63 63 SE 6 9 30.02 1017 10 16.0934 0 0
11:15 pm 23:15 Clear 72 22.2 58 14.5 62 62 SE 10 17 30.02 1017 10 16.0934 0 0
11:35 pm 23:35 Clear 71 21.5 59 14.9 66 66 SSE 7 11 30.03 1017 10 16.0934 0 0
11:55 pm 23:55 Clear 69 20.5 59 15 71 71 SSE 8 13 30.03 1017 10 16.0934 0 0

Powered by AerisWeather